M I D A S
Marine Information and Data Acquisition System
Tripno 1302 of the Zeeleeuw from 2007-07-30 08:39:05 to 2007-07-30 13:44:51
Back to CruiseResearch ActivitiesStationsMapUnderway DataData graphs

EquipmentUnitsComments
TimeDGPSUTC
LatitudeDGPSDM.mWGS84
LongitudeDGPSDM.mWGS84
SpeedMeteo Stationm/sRelative wind speed
DirectionMeteo StationdegRelative wind direction
TemperatureMeteo Stationdeg CelciusAir temperature
PressureMeteo StationPaAtmospheric pressure
HumidityMeteo Station%Relative humidity
Missing or incorrect values are displayed as -999
Metereological data collected by the RV Zeeleeuw from 2007-07-30 06:59:30 to 2007-07-30 13:56:19
                                                                                    Next 1000 lines
Time Latitude Longitude Speed Direction Temperature Pressure Humidity
2007-07-30 06:59:40 51°15.783 2°53.706 12.9 322 15.1 101860 76
2007-07-30 06:59:45 51°15.798 2°53.693 14 320 15.1 101840 76
2007-07-30 06:59:50 51°15.813 2°53.68 15.2 323 15.1 101840 76
2007-07-30 06:59:54 51°15.825 2°53.67 15.1 324 15.1 101850 76
2007-07-30 07:00:00 51°15.842 2°53.655 16.2 322 15.1 101850 76
2007-07-30 07:00:05 51°15.857 2°53.642 15.3 280 15.1 101850 77
2007-07-30 07:00:10 51°15.871 2°53.63 14.3 322 15.1 101850 77
2007-07-30 07:00:14 51°15.883 2°53.62 12.5 282 15.1 101840 77
2007-07-30 07:00:20 51°15.901 2°53.605 13.9 323 15.1 101840 77
2007-07-30 07:00:24 51°15.913 2°53.596 12.5 323 15.1 101860 77
2007-07-30 07:00:29 51°15.928 2°53.584 12.9 323 15.1 101860 77
2007-07-30 07:00:34 51°15.943 2°53.571 13.9 323 15.1 101840 76
2007-07-30 07:00:40 51°15.96 2°53.555 14.4 323 15.1 101840 76
2007-07-30 07:00:45 51°15.975 2°53.541 15.2 321 15 101860 75
2007-07-30 07:00:50 51°15.989 2°53.528 13.4 322 15 101860 75
2007-07-30 07:00:55 51°16.003 2°53.514 15.5 322 15 101850 75
2007-07-30 07:01:00 51°16.017 2°53.5 14 319 15 101850 75
2007-07-30 07:01:05 51°16.032 2°53.487 13.5 320 15 101840 76
2007-07-30 07:01:09 51°16.044 2°53.477 13.5 325 15 101840 76
2007-07-30 07:01:14 51°16.059 2°53.464 13.4 283 15.1 101860 76
2007-07-30 07:01:20 51°16.076 2°53.447 14.4 322 15.1 101860 76
2007-07-30 07:01:25 51°16.09 2°53.434 13.9 324 15 101830 76
2007-07-30 07:01:29 51°16.102 2°53.422 15.3 321 15 101830 76
2007-07-30 07:01:34 51°16.116 2°53.409 14.2 284 15.1 101850 76
2007-07-30 07:01:40 51°16.133 2°53.393 13.3 321 15.1 101850 76
2007-07-30 07:01:45 51°16.148 2°53.379 15.2 321 15.1 101850 77
2007-07-30 07:01:50 51°16.162 2°53.366 13.1 320 15.1 101850 77
2007-07-30 07:01:54 51°16.174 2°53.355 14.5 320 15.1 101840 77
2007-07-30 07:02:00 51°16.191 2°53.339 11.6 320 15.1 101840 77
2007-07-30 07:02:05 51°16.206 2°53.325 13.6 279 15.1 101850 77
2007-07-30 07:02:10 51°16.22 2°53.312 12.4 323 15.1 101850 77
2007-07-30 07:02:14 51°16.232 2°53.301 13.1 282 15.1 101850 77
2007-07-30 07:02:20 51°16.249 2°53.285 14.4 318 15.1 101850 77
2007-07-30 07:02:25 51°16.264 2°53.272 11.8 277 15.1 101850 77
2007-07-30 07:02:30 51°16.278 2°53.259 12.2 320 15.1 101850 77
2007-07-30 07:02:34 51°16.29 2°53.248 13.4 277 15.1 101850 77
2007-07-30 07:02:40 51°16.307 2°53.232 15 320 15.1 101850 77
2007-07-30 07:02:44 51°16.319 2°53.222 14.4 319 15.1 101850 77
2007-07-30 07:02:50 51°16.337 2°53.206 14.5 324 15.1 101850 77
2007-07-30 07:02:54 51°16.349 2°53.195 15.1 322 15.1 101860 77
2007-07-30 07:03:00 51°16.366 2°53.18 14.2 321 15.1 101860 77
2007-07-30 07:03:05 51°16.38 2°53.166 13.9 280 15 101840 76
2007-07-30 07:03:10 51°16.395 2°53.153 14.3 323 15 101840 76
2007-07-30 07:03:15 51°16.409 2°53.139 14.3 324 15 101840 76
2007-07-30 07:03:20 51°16.423 2°53.126 12.4 323 15 101840 76
2007-07-30 07:03:25 51°16.437 2°53.112 14.4 323 15 101830 76
2007-07-30 07:03:29 51°16.449 2°53.102 13.1 322 15 101830 76
2007-07-30 07:03:34 51°16.464 2°53.089 15.1 284 15 101850 76
2007-07-30 07:03:40 51°16.481 2°53.074 13.2 325 15 101850 76
2007-07-30 07:03:45 51°16.495 2°53.061 14.4 322 15 101850 75
2007-07-30 07:03:49 51°16.507 2°53.052 13.9 320 15 101850 75
2007-07-30 07:03:54 51°16.522 2°53.039 15.3 277 15 101850 75
2007-07-30 07:04:00 51°16.54 2°53.024 14.3 322 15 101850 75
2007-07-30 07:04:05 51°16.555 2°53.011 13.6 276 15 101850 75
2007-07-30 07:04:10 51°16.569 2°52.999 14.8 322 15 101850 75
2007-07-30 07:04:14 51°16.581 2°52.988 13.8 319 15 101840 75
2007-07-30 07:04:20 51°16.599 2°52.973 14.6 319 15 101840 75
2007-07-30 07:04:25 51°16.614 2°52.961 14.2 281 15 101840 75
2007-07-30 07:04:30 51°16.628 2°52.948 13.3 318 15 101840 75
2007-07-30 07:04:34 51°16.64 2°52.938 13.5 277 15 101850 75
2007-07-30 07:04:40 51°16.658 2°52.923 12.4 317 15 101850 75
2007-07-30 07:04:45 51°16.673 2°52.91 13.4 317 15 101850 75
2007-07-30 07:04:49 51°16.685 2°52.9 12.7 318 15 101850 75
2007-07-30 07:04:54 51°16.699 2°52.888 13.1 316 15 101840 74
2007-07-30 07:05:00 51°16.717 2°52.873 13.7 316 15 101840 74
2007-07-30 07:05:05 51°16.731 2°52.86 12.9 277 15 101840 74
2007-07-30 07:05:10 51°16.746 2°52.847 12 320 15 101840 74
2007-07-30 07:05:14 51°16.758 2°52.837 14 320 15 101850 76
2007-07-30 07:05:20 51°16.775 2°52.822 11.7 317 15 101850 76
2007-07-30 07:05:25 51°16.789 2°52.809 13.6 278 15 101850 75
2007-07-30 07:05:30 51°16.803 2°52.797 12.6 318 15 101850 75
2007-07-30 07:05:35 51°16.818 2°52.784 12.8 317 15 101850 76
2007-07-30 07:05:40 51°16.832 2°52.772 12.1 318 15 101850 76
2007-07-30 07:05:45 51°16.846 2°52.761 12.2 319 15.1 101850 77
2007-07-30 07:05:49 51°16.858 2°52.752 14.6 322 15.1 101850 77
2007-07-30 07:05:54 51°16.873 2°52.741 13.5 281 15.1 101840 77
2007-07-30 07:06:00 51°16.89 2°52.729 12.9 320 15.1 101840 77
2007-07-30 07:06:05 51°16.905 2°52.719 13.3 319 15.1 101850 77
2007-07-30 07:06:09 51°16.917 2°52.712 13.1 318 15.1 101850 77
2007-07-30 07:06:14 51°16.932 2°52.703 12.5 318 15.1 101840 77
2007-07-30 07:06:20 51°16.951 2°52.693 11.5 316 15.1 101840 77
2007-07-30 07:06:25 51°16.966 2°52.686 13.7 285 15.1 101850 77
2007-07-30 07:06:30 51°16.982 2°52.678 11.5 38 15.1 101850 77
2007-07-30 07:06:34 51°16.994 2°52.673 14.5 315 15 101850 77
2007-07-30 07:06:40 51°17.013 2°52.664 12.9 35 15 101850 77
2007-07-30 07:06:45 51°17.028 2°52.658 12.4 26 15 101840 77
2007-07-30 07:06:50 51°17.043 2°52.651 12.6 33 15 101840 77
2007-07-30 07:06:54 51°17.056 2°52.646 14.6 280 15 101850 77
2007-07-30 07:07:00 51°17.074 2°52.638 12.3 318 15 101850 77
2007-07-30 07:07:05 51°17.09 2°52.631 13.4 281 15 101830 77
2007-07-30 07:07:09 51°17.102 2°52.626 14.1 318 15 101830 77
2007-07-30 07:07:14 51°17.117 2°52.619 11.7 318 15 101840 77
2007-07-30 07:07:20 51°17.135 2°52.611 12.1 317 15 101840 77
2007-07-30 07:07:25 51°17.151 2°52.603 14.2 280 15 101840 78
2007-07-30 07:07:30 51°17.166 2°52.596 13.7 317 15 101840 78
2007-07-30 07:07:35 51°17.182 2°52.59 12.4 317 15 101850 78
2007-07-30 07:07:40 51°17.197 2°52.583 12.6 318 15 101850 78
2007-07-30 07:07:45 51°17.213 2°52.575 4.4 318 15 101860 78
2007-07-30 07:07:49 51°17.225 2°52.569 13.3 317 15 101860 78
2007-07-30 07:07:54 51°17.24 2°52.561 14.5 286 15 101850 78
2007-07-30 07:08:00 51°17.259 2°52.553 13.5 318 15 101850 78
2007-07-30 07:08:05 51°17.274 2°52.545 13.2 317 15.1 101850 78
2007-07-30 07:08:09 51°17.286 2°52.539 14.5 317 15.1 101850 78
2007-07-30 07:08:14 51°17.302 2°52.532 14.1 280 15.1 101850 78
2007-07-30 07:08:20 51°17.32 2°52.524 14.1 316 15.1 101850 78
2007-07-30 07:08:25 51°17.336 2°52.52 12.2 318 15.1 101840 78
2007-07-30 07:08:30 51°17.351 2°52.517 11.9 315 15.1 101840 78
2007-07-30 07:08:34 51°17.364 2°52.516 13.3 285 15 101840 77
2007-07-30 07:08:40 51°17.383 2°52.515 13.9 31 15 101840 77
2007-07-30 07:08:45 51°17.398 2°52.515 11.6 22 15 101850 77
2007-07-30 07:08:50 51°17.414 2°52.516 14 34 15 101850 77
2007-07-30 07:08:54 51°17.427 2°52.516 12.5 22 15 101850 77
2007-07-30 07:09:00 51°17.445 2°52.518 13.3 38 15 101850 77
2007-07-30 07:09:05 51°17.461 2°52.519 12.1 282 15 101840 76
2007-07-30 07:09:10 51°17.477 2°52.521 12.9 36 15 101840 76
2007-07-30 07:09:14 51°17.489 2°52.521 10.6 278 15 101860 76
2007-07-30 07:09:20 51°17.508 2°52.523 11.1 37 15 101860 76
2007-07-30 07:09:25 51°17.524 2°52.524 11.7 277 14.9 101850 75
2007-07-30 07:09:29 51°17.536 2°52.525 11.6 38 14.9 101850 75
2007-07-30 07:09:34 51°17.552 2°52.526 13.2 27 14.9 101850 74
2007-07-30 07:09:40 51°17.571 2°52.527 12.5 32 14.9 101850 74
2007-07-30 07:09:45 51°17.587 2°52.527 12.4 23 14.9 101850 75
2007-07-30 07:09:50 51°17.602 2°52.528 12 40 14.9 101850 75
2007-07-30 07:09:55 51°17.618 2°52.53 12.3 29 14.9 101850 75
2007-07-30 07:10:00 51°17.634 2°52.53 10.9 229 14.9 101850 75
2007-07-30 07:10:05 51°17.649 2°52.532 11.1 24 14.9 101840 75
2007-07-30 07:10:09 51°17.662 2°52.532 10.8 34 14.9 101840 75
2007-07-30 07:10:14 51°17.678 2°52.533 11.9 279 14.9 101840 74
2007-07-30 07:10:20 51°17.697 2°52.533 13 34 14.9 101840 74
2007-07-30 07:10:25 51°17.712 2°52.534 12.7 22 14.9 101850 75
2007-07-30 07:10:29 51°17.724 2°52.534 13.3 37 14.9 101850 75
2007-07-30 07:10:34 51°17.74 2°52.535 12.4 284 15 101860 75
2007-07-30 07:10:40 51°17.759 2°52.536 13.4 34 15 101860 75
2007-07-30 07:10:45 51°17.774 2°52.536 12.5 21 15 101850 75
2007-07-30 07:10:50 51°17.79 2°52.537 12.5 34 15 101850 75
2007-07-30 07:10:55 51°17.806 2°52.538 11.7 277 15 101850 75
2007-07-30 07:11:00 51°17.821 2°52.539 13.4 34 15 101850 75
2007-07-30 07:11:05 51°17.837 2°52.539 13.9 281 15 101870 75
2007-07-30 07:11:10 51°17.852 2°52.54 12.5 33 15 101870 75
2007-07-30 07:11:14 51°17.865 2°52.542 12 282 15 101850 77
2007-07-30 07:11:20 51°17.883 2°52.545 13.3 32 15 101850 77
2007-07-30 07:11:25 51°17.898 2°52.548 12.2 284 15 101850 76
2007-07-30 07:11:30 51°17.914 2°52.551 12 34 15 101850 76
2007-07-30 07:11:34 51°17.926 2°52.554 12.6 285 15 101830 76
2007-07-30 07:11:40 51°17.944 2°52.557 12 33 15 101830 76
2007-07-30 07:11:45 51°17.959 2°52.561 11.2 25 15 101840 76
2007-07-30 07:11:50 51°17.975 2°52.566 12.7 236 15 101840 76
2007-07-30 07:11:54 51°17.986 2°52.571 9.7 27 15 101860 75
2007-07-30 07:12:00 51°18.004 2°52.581 10.5 237 15 101860 75
2007-07-30 07:12:05 51°18.018 2°52.591 10.3 283 15 101840 75
2007-07-30 07:12:10 51°18.031 2°52.603 10.5 238 15 101840 75
2007-07-30 07:12:15 51°18.044 2°52.615 10.7 25 15 101860 76
2007-07-30 07:12:20 51°18.057 2°52.629 8 242 15 101860 76
2007-07-30 07:12:25 51°18.069 2°52.644 10.8 21 15 101860 76
2007-07-30 07:12:29 51°18.078 2°52.657 8.7 241 15 101860 76
2007-07-30 07:12:34 51°18.09 2°52.672 7.9 284 15 101850 76
2007-07-30 07:12:40 51°18.105 2°52.691 9.3 239 15 101850 76
2007-07-30 07:12:45 51°18.117 2°52.708 9.6 24 15 101860 76
2007-07-30 07:12:49 51°18.127 2°52.72 8.3 239 15 101860 76
2007-07-30 07:12:54 51°18.139 2°52.736 11.2 283 15 101850 77
2007-07-30 07:13:00 51°18.153 2°52.756 9.6 239 15 101850 77
2007-07-30 07:13:05 51°18.165 2°52.771 9 278 15.1 101870 77
2007-07-30 07:13:10 51°18.177 2°52.788 9.2 245 15.1 101870 77
2007-07-30 07:13:14 51°18.186 2°52.801 9.3 24 15 101860 77
2007-07-30 07:13:20 51°18.199 2°52.823 8.1 242 15 101860 77
2007-07-30 07:13:25 51°18.208 2°52.843 9.5 284 15.1 101870 78
2007-07-30 07:13:30 51°18.216 2°52.863 8.6 240 15.1 101870 78
2007-07-30 07:13:34 51°18.223 2°52.881 7.8 279 15.1 101870 77
2007-07-30 07:13:40 51°18.232 2°52.907 7.6 242 15.1 101870 77
2007-07-30 07:13:45 51°18.239 2°52.929 7.9 26 15 101860 77
2007-07-30 07:13:49 51°18.246 2°52.947 9.3 242 15 101860 77
2007-07-30 07:13:54 51°18.253 2°52.97 8.7 24 15.1 101860 78
2007-07-30 07:14:00 51°18.261 2°52.998 8.1 244 15.1 101860 78
2007-07-30 07:14:05 51°18.268 2°53.02 8.6 286 15.1 101870 78
2007-07-30 07:14:10 51°18.275 2°53.044 9.5 242 15.1 101870 78
2007-07-30 07:14:15 51°18.283 2°53.066 7.8 23 15.1 101860 78
2007-07-30 07:14:20 51°18.29 2°53.089 9.7 242 15.1 101860 78
2007-07-30 07:14:25 51°18.297 2°53.112 9.2 24 15.1 101870 78
2007-07-30 07:14:30 51°18.305 2°53.134 9.4 242 15.1 101870 78
2007-07-30 07:14:34 51°18.312 2°53.152 8 283 15.1 101870 78
2007-07-30 07:14:40 51°18.32 2°53.179 8.5 240 15.1 101870 78
2007-07-30 07:14:45 51°18.327 2°53.201 7.3 26 15.1 101860 77
2007-07-30 07:14:49 51°18.333 2°53.22 7.2 238 15.1 101860 77
2007-07-30 07:14:54 51°18.34 2°53.243 8.1 282 15.1 101860 77
2007-07-30 07:15:00 51°18.349 2°53.27 6.8 244 15.1 101860 77
2007-07-30 07:15:05 51°18.357 2°53.292 6 23 15.1 101870 77
2007-07-30 07:15:10 51°18.364 2°53.315 6.8 239 15.1 101870 77
2007-07-30 07:15:14 51°18.369 2°53.333 6.9 285 15.1 101860 77
2007-07-30 07:15:20 51°18.377 2°53.361 6.3 244 15.1 101860 77
2007-07-30 07:15:25 51°18.384 2°53.384 8.8 284 15.1 101870 77
2007-07-30 07:15:30 51°18.391 2°53.407 6.5 248 15.1 101870 77
2007-07-30 07:15:35 51°18.398 2°53.43 7 281 15.1 101870 77
2007-07-30 07:15:40 51°18.404 2°53.453 6 246 15.1 101870 77
2007-07-30 07:15:45 51°18.411 2°53.476 7.8 245 15.1 101870 77
2007-07-30 07:15:50 51°18.417 2°53.499 6.2 247 15.1 101870 77
2007-07-30 07:15:54 51°18.423 2°53.517 7 281 15.1 101870 77
2007-07-30 07:16:00 51°18.431 2°53.544 5.7 246 15.1 101870 77
2007-07-30 07:16:05 51°18.438 2°53.567 7.2 279 15.2 101870 78
2007-07-30 07:16:09 51°18.443 2°53.586 7 250 15.2 101870 78
2007-07-30 07:16:14 51°18.45 2°53.609 7 24 15.2 101870 78
2007-07-30 07:16:20 51°18.46 2°53.635 7 248 15.2 101870 78
2007-07-30 07:16:25 51°18.465 2°53.659 8.6 281 15.2 101870 77
2007-07-30 07:16:30 51°18.473 2°53.681 6.9 243 15.2 101870 77
2007-07-30 07:16:35 51°18.48 2°53.704 5.7 26 15.2 101870 77
2007-07-30 07:16:40 51°18.487 2°53.725 7.4 245 15.2 101870 77
2007-07-30 07:16:45 51°18.495 2°53.747 7.9 22 15.2 101860 77
2007-07-30 07:16:50 51°18.503 2°53.768 8.4 242 15.2 101860 77
2007-07-30 07:16:54 51°18.508 2°53.787 7.9 285 15.2 101870 77
2007-07-30 07:17:00 51°18.517 2°53.814 7.6 244 15.2 101870 77
2007-07-30 07:17:05 51°18.523 2°53.838 6.3 245 15.2 101880 77
2007-07-30 07:17:10 51°18.531 2°53.859 5.9 244 15.2 101880 77
2007-07-30 07:17:14 51°18.535 2°53.879 8.3 284 15.3 101860 78
2007-07-30 07:17:20 51°18.544 2°53.905 8.3 241 15.3 101860 78
2007-07-30 07:17:25 51°18.55 2°53.928 10.3 283 15.3 101870 78
2007-07-30 07:17:30 51°18.559 2°53.949 7.4 243 15.3 101870 78
2007-07-30 07:17:34 51°18.563 2°53.968 8.2 245 15.3 101870 77
2007-07-30 07:17:40 51°18.572 2°53.994 8.4 247 15.3 101870 77
2007-07-30 07:17:45 51°18.578 2°54.017 8.7 248 15.3 101870 77
2007-07-30 07:17:50 51°18.585 2°54.04 6.4 247 15.3 101870 77
2007-07-30 07:17:54 51°18.589 2°54.059 8.2 280 15.3 101850 78
2007-07-30 07:18:00 51°18.598 2°54.086 6.2 249 15.3 101850 78
2007-07-30 07:18:05 51°18.603 2°54.11 6.7 283 15.3 101860 77
2007-07-30 07:18:10 51°18.609 2°54.134 7.1 248 15.3 101860 77
2007-07-30 07:18:14 51°18.614 2°54.153 6.9 283 15.3 101860 77
2007-07-30 07:18:20 51°18.621 2°54.18 6.2 249 15.3 101860 77
2007-07-30 07:18:25 51°18.627 2°54.204 8.1 279 15.4 101870 77
2007-07-30 07:18:30 51°18.632 2°54.227 6.9 249 15.4 101870 77
2007-07-30 07:18:34 51°18.638 2°54.245 8.2 250 15.4 101870 77
2007-07-30 07:18:40 51°18.643 2°54.275 6.8 248 15.4 101870 77
2007-07-30 07:18:45 51°18.651 2°54.297 8.3 250 15.4 101870 77
2007-07-30 07:18:50 51°18.655 2°54.321 6.9 248 15.4 101870 77
2007-07-30 07:18:55 51°18.662 2°54.344 7.4 250 15.4 101870 77
2007-07-30 07:19:00 51°18.667 2°54.368 4.8 249 15.4 101870 77
2007-07-30 07:19:05 51°18.673 2°54.391 5.9 248 15.4 101880 77
2007-07-30 07:19:10 51°18.679 2°54.415 5 247 15.4 101880 77
2007-07-30 07:19:14 51°18.683 2°54.434 5.3 283 15.4 101880 76
2007-07-30 07:19:20 51°18.69 2°54.462 4.9 240 15.4 101880 76
2007-07-30 07:19:25 51°18.696 2°54.486 6.7 26 15.4 101880 76
2007-07-30 07:19:29 51°18.701 2°54.504 4.9 250 15.4 101880 76
2007-07-30 07:19:34 51°18.706 2°54.528 7.1 286 15.4 101880 76
2007-07-30 07:19:40 51°18.714 2°54.555 4.8 247 15.4 101880 76
2007-07-30 07:19:45 51°18.72 2°54.579 5.4 20 15.4 101870 76
2007-07-30 07:19:50 51°18.726 2°54.603 6.9 249 15.4 101870 76
2007-07-30 07:19:55 51°18.732 2°54.627 4.4 279 15.4 101870 76
2007-07-30 07:20:00 51°18.738 2°54.65 6.6 243 15.4 101870 76
2007-07-30 07:20:05 51°18.743 2°54.674 8 282 15.5 101860 76
2007-07-30 07:20:10 51°18.75 2°54.697 5.9 248 15.5 101860 76
2007-07-30 07:20:14 51°18.754 2°54.717 5.4 278 15.5 101880 76
2007-07-30 07:20:20 51°18.761 2°54.745 6.5 248 15.5 101880 76
2007-07-30 07:20:25 51°18.768 2°54.768 5.5 284 15.5 101870 76
2007-07-30 07:20:29 51°18.772 2°54.787 9.1 243 15.5 101870 76
2007-07-30 07:20:34 51°18.78 2°54.809 8.6 246 15.5 101860 76
2007-07-30 07:20:40 51°18.787 2°54.837 9.3 243 15.5 101860 76
2007-07-30 07:20:45 51°18.792 2°54.861 5.9 21 15.5 101870 76
2007-07-30 07:20:50 51°18.799 2°54.884 6.9 243 15.5 101870 76
2007-07-30 07:20:54 51°18.804 2°54.903 7.5 245 15.5 101880 76
2007-07-30 07:21:00 51°18.811 2°54.931 7.2 246 15.5 101880 76
2007-07-30 07:21:05 51°18.817 2°54.954 6.3 19 15.5 101860 75
2007-07-30 07:21:10 51°18.824 2°54.977 6.5 238 15.5 101860 75
2007-07-30 07:21:15 51°18.83 2°55.001 8.6 23 15.5 101860 75
2007-07-30 07:21:20 51°18.835 2°55.024 8.6 246 15.5 101860 75
2007-07-30 07:21:25 51°18.842 2°55.048 8.3 246 15.5 101860 74
2007-07-30 07:21:30 51°18.848 2°55.071 7.8 246 15.5 101860 74
2007-07-30 07:21:34 51°18.853 2°55.089 6.2 284 15.5 101870 74
2007-07-30 07:21:40 51°18.86 2°55.117 7.1 244 15.5 101870 74
2007-07-30 07:21:45 51°18.865 2°55.141 7.5 24 15.5 101860 74
2007-07-30 07:21:50 51°18.871 2°55.165 5.6 246 15.5 101860 74
2007-07-30 07:21:54 51°18.875 2°55.184 5.9 279 15.5 101870 74
2007-07-30 07:22:00 51°18.882 2°55.212 8 247 15.5 101870 74
2007-07-30 07:22:05 51°18.887 2°55.236 8 285 15.5 101870 74
2007-07-30 07:22:10 51°18.893 2°55.259 7.1 243 15.5 101870 74
2007-07-30 07:22:14 51°18.896 2°55.279 7 24 15.5 101870 74
2007-07-30 07:22:20 51°18.903 2°55.307 6.1 241 15.5 101870 74
2007-07-30 07:22:25 51°18.909 2°55.331 7.4 286 15.5 101860 74
2007-07-30 07:22:30 51°18.914 2°55.355 6.8 242 15.5 101860 74
2007-07-30 07:22:34 51°18.918 2°55.374 7 285 15.5 101860 74
2007-07-30 07:22:40 51°18.925 2°55.402 5.7 244 15.5 101860 74
2007-07-30 07:22:45 51°18.929 2°55.427 5.1 25 15.5 101870 74
2007-07-30 07:22:49 51°18.935 2°55.445 4.7 245 15.5 101870 74
2007-07-30 07:22:54 51°18.939 2°55.47 7.4 22 15.5 101860 74
2007-07-30 07:23:00 51°18.946 2°55.498 5.6 240 15.5 101860 74
2007-07-30 07:23:05 51°18.952 2°55.522 7.2 278 15.5 101870 73
2007-07-30 07:23:10 51°18.958 2°55.545 4.8 244 15.5 101870 73
2007-07-30 07:23:15 51°18.963 2°55.569 6.1 247 15.5 101870 73
2007-07-30 07:23:20 51°18.968 2°55.593 6.6 248 15.5 101870 73
2007-07-30 07:23:25 51°18.975 2°55.616 4.4 247 15.6 101860 73
2007-07-30 07:23:30 51°18.98 2°55.641 6.2 246 15.6 101860 73
2007-07-30 07:23:34 51°18.985 2°55.659 6.4 279 15.5 101870 73
2007-07-30 07:23:40 51°18.992 2°55.688 7.6 243 15.5 101870 73
2007-07-30 07:23:45 51°18.997 2°55.711 5.1 20 15.5 101870 73
2007-07-30 07:23:50 51°19.002 2°55.735 7 249 15.5 101870 73
2007-07-30 07:23:54 51°19.007 2°55.754 5.9 285 15.5 101870 74
2007-07-30 07:24:00 51°19.014 2°55.782 5.7 250 15.5 101870 74
2007-07-30 07:24:05 51°19.019 2°55.806 5.3 284 15.5 101880 74
2007-07-30 07:24:10 51°19.025 2°55.829 5.8 248 15.5 101880 74
2007-07-30 07:24:15 51°19.03 2°55.853 7.8 286 15.5 101880 74
2007-07-30 07:24:20 51°19.036 2°55.876 6.3 247 15.5 101880 74
2007-07-30 07:24:25 51°19.041 2°55.9 7 279 15.5 101870 74
2007-07-30 07:24:30 51°19.047 2°55.923 5.4 246 15.5 101870 74
2007-07-30 07:24:34 51°19.051 2°55.941 7.1 279 15.6 101880 74
2007-07-30 07:24:40 51°19.058 2°55.969 4.5 247 15.6 101880 74
2007-07-30 07:24:45 51°19.062 2°55.993 4.5 249 15.6 101860 74
2007-07-30 07:24:50 51°19.068 2°56.016 4.9 249 15.6 101860 74
2007-07-30 07:24:54 51°19.072 2°56.034 5.1 285 15.6 101880 74
2007-07-30 07:25:00 51°19.078 2°56.063 8.2 253 15.6 101880 74
2007-07-30 07:25:05 51°19.084 2°56.085 5.5 278 15.6 101860 74
2007-07-30 07:25:10 51°19.09 2°56.108 5.8 253 15.6 101860 74
2007-07-30 07:25:14 51°19.093 2°56.127 7.7 250 15.6 101870 74
2007-07-30 07:25:20 51°19.101 2°56.154 6.8 250 15.6 101870 74
2007-07-30 07:25:25 51°19.106 2°56.178 7.6 285 15.6 101870 74
2007-07-30 07:25:30 51°19.112 2°56.201 5.7 243 15.6 101870 74
2007-07-30 07:25:35 51°19.117 2°56.224 7.5 21 15.6 101870 75
2007-07-30 07:25:40 51°19.124 2°56.246 7.3 244 15.6 101870 75
2007-07-30 07:25:45 51°19.129 2°56.269 6.6 20 15.6 101870 74
2007-07-30 07:25:50 51°19.135 2°56.292 6.6 244 15.6 101870 74
2007-07-30 07:25:54 51°19.139 2°56.31 7.6 282 15.6 101880 74
2007-07-30 07:26:00 51°19.146 2°56.338 6.7 245 15.6 101880 74
2007-07-30 07:26:05 51°19.152 2°56.361 8.2 248 15.6 101870 75
2007-07-30 07:26:09 51°19.157 2°56.379 6.4 244 15.6 101870 75
2007-07-30 07:26:14 51°19.162 2°56.402 6.4 286 15.6 101870 75
2007-07-30 07:26:20 51°19.17 2°56.43 7.2 241 15.6 101870 75
2007-07-30 07:26:25 51°19.176 2°56.453 5.8 280 15.6 101870 74
2007-07-30 07:26:30 51°19.181 2°56.476 8 246 15.6 101870 74
2007-07-30 07:26:35 51°19.187 2°56.499 5.7 280 15.5 101870 74
2007-07-30 07:26:40 51°19.193 2°56.522 5.7 242 15.5 101870 74
2007-07-30 07:26:45 51°19.199 2°56.545 6 246 15.5 101870 74
2007-07-30 07:26:50 51°19.204 2°56.568 6.1 246 15.5 101870 74
2007-07-30 07:26:54 51°19.209 2°56.586 6.7 277 15.5 101870 74
2007-07-30 07:27:00 51°19.214 2°56.615 7.5 248 15.5 101870 74
2007-07-30 07:27:05 51°19.221 2°56.637 6.1 279 15.5 101870 74
2007-07-30 07:27:09 51°19.225 2°56.656 7.3 246 15.5 101870 74
2007-07-30 07:27:14 51°19.231 2°56.679 7.1 21 15.5 101870 74
2007-07-30 07:27:20 51°19.237 2°56.706 7.4 244 15.5 101870 74
2007-07-30 07:27:25 51°19.242 2°56.73 5.7 279 15.5 101880 74
2007-07-30 07:27:30 51°19.248 2°56.752 6.4 247 15.5 101880 74
2007-07-30 07:27:35 51°19.254 2°56.775 5.8 248 15.5 101870 74
2007-07-30 07:27:40 51°19.258 2°56.798 7.8 251 15.5 101870 74
2007-07-30 07:27:45 51°19.264 2°56.821 6.7 251 15.4 101880 74
2007-07-30 07:27:50 51°19.27 2°56.844 6.4 244 15.4 101880 74
2007-07-30 07:27:54 51°19.274 2°56.862 7.1 284 15.4 101880 74
2007-07-30 07:28:00 51°19.281 2°56.889 6.2 252 15.4 101880 74
2007-07-30 07:28:05 51°19.286 2°56.913 6.1 250 15.4 101870 74
2007-07-30 07:28:10 51°19.292 2°56.935 4.9 251 15.4 101870 74
2007-07-30 07:28:14 51°19.296 2°56.954 4.3 281 15.4 101870 75
2007-07-30 07:28:20 51°19.301 2°56.982 7.9 253 15.4 101870 75
2007-07-30 07:28:25 51°19.308 2°57.004 5.8 253 15.4 101870 75
2007-07-30 07:28:30 51°19.311 2°57.028 7.2 253 15.4 101870 75
2007-07-30 07:28:35 51°19.318 2°57.05 6.6 278 15.4 101870 75
2007-07-30 07:28:40 51°19.321 2°57.075 7.8 259 15.4 101870 75
2007-07-30 07:28:45 51°19.328 2°57.097 7.4 258 15.4 101880 75
2007-07-30 07:28:50 51°19.332 2°57.12 4.9 249 15.4 101880 75
2007-07-30 07:28:55 51°19.338 2°57.143 4.5 283 15.4 101880 75
2007-07-30 07:29:00 51°19.344 2°57.166 6.6 252 15.4 101880 75
2007-07-30 07:29:05 51°19.349 2°57.189 7.8 285 15.4 101880 75
2007-07-30 07:29:10 51°19.355 2°57.212 6.4 256 15.4 101880 75
2007-07-30 07:29:14 51°19.358 2°57.231 6.3 285 15.4 101870 75
2007-07-30 07:29:20 51°19.365 2°57.258 6.5 256 15.4 101870 75
2007-07-30 07:29:25 51°19.37 2°57.281 8.1 283 15.5 101880 76
2007-07-30 07:29:30 51°19.376 2°57.304 6.8 254 15.5 101880 76
2007-07-30 07:29:34 51°19.379 2°57.323 6.2 248 15.5 101880 76
2007-07-30 07:29:40 51°19.387 2°57.35 6.3 245 15.5 101880 76
2007-07-30 07:29:45 51°19.391 2°57.375 6.5 245 15.5 101880 76
2007-07-30 07:29:50 51°19.398 2°57.396 6 243 15.5 101880 76
2007-07-30 07:29:55 51°19.401 2°57.42 6.8 23 15.5 101880 76
2007-07-30 07:30:00 51°19.409 2°57.442 5.9 242 15.5 101880 76
2007-07-30 07:30:05 51°19.413 2°57.465 7.2 279 15.5 101880 76
2007-07-30 07:30:10 51°19.419 2°57.489 7.3 248 15.5 101880 76
2007-07-30 07:30:14 51°19.424 2°57.507 4.8 285 15.5 101860 76
2007-07-30 07:30:20 51°19.43 2°57.535 7.4 248 15.5 101860 76
2007-07-30 07:30:25 51°19.435 2°57.558 5.2 245 15.5 101860 75
2007-07-30 07:30:30 51°19.44 2°57.581 5.9 241 15.5 101860 75
2007-07-30 07:30:34 51°19.444 2°57.599 5.2 285 15.6 101870 75
2007-07-30 07:30:40 51°19.451 2°57.626 5.6 247 15.6 101870 75
2007-07-30 07:30:45 51°19.457 2°57.648 7.1 245 15.5 101870 75
2007-07-30 07:30:50 51°19.462 2°57.671 6.6 250 15.5 101870 75
2007-07-30 07:30:55 51°19.468 2°57.694 5.1 279 15.5 101870 75
2007-07-30 07:31:00 51°19.473 2°57.717 5.3 244 15.5 101870 75
2007-07-30 07:31:05 51°19.479 2°57.74 7.8 279 15.5 101880 75
2007-07-30 07:31:10 51°19.484 2°57.762 5.9 246 15.5 101880 75
2007-07-30 07:31:14 51°19.488 2°57.781 8.2 280 15.5 101880 75
2007-07-30 07:31:20 51°19.495 2°57.808 7.8 248 15.5 101880 75
2007-07-30 07:31:25 51°19.501 2°57.831 5.5 279 15.5 101870 75
2007-07-30 07:31:30 51°19.507 2°57.854 6.4 249 15.5 101870 75
2007-07-30 07:31:34 51°19.512 2°57.872 5.4 279 15.5 101870 75
2007-07-30 07:31:40 51°19.518 2°57.899 6.3 249 15.5 101870 75
2007-07-30 07:31:45 51°19.524 2°57.922 8.6 250 15.5 101870 75
2007-07-30 07:31:50 51°19.529 2°57.946 5.7 251 15.5 101870 75
2007-07-30 07:31:55 51°19.535 2°57.969 6.6 250 15.5 101870 75
2007-07-30 07:31:59 51°19.539 2°57.987 5.8 246 15.5 101870 75
2007-07-30 07:32:05 51°19.546 2°58.015 7.6 286 15.5 101870 75
2007-07-30 07:32:10 51°19.551 2°58.038 5.6 251 15.5 101870 75
2007-07-30 07:32:14 51°19.556 2°58.056 6.4 280 15.5 101870 75
2007-07-30 07:32:20 51°19.563 2°58.083 5.5 247 15.5 101870 75
2007-07-30 07:32:25 51°19.569 2°58.106 8.3 280 15.5 101880 75
2007-07-30 07:32:30 51°19.575 2°58.129 7 247 15.5 101880 75
2007-07-30 07:32:34 51°19.578 2°58.148 9 281 15.5 101880 75
2007-07-30 07:32:40 51°19.585 2°58.175 7.4 245 15.5 101880 75
2007-07-30 07:32:45 51°19.59 2°58.198 7.5 21 15.5 101870 75
2007-07-30 07:32:50 51°19.595 2°58.221 7.6 246 15.5 101870 75
2007-07-30 07:32:54 51°19.6 2°58.239 8.5 284 15.5 101850 76
2007-07-30 07:33:00 51°19.605 2°58.267 7.5 247 15.5 101850 76
2007-07-30 07:33:05 51°19.612 2°58.289 6.8 283 15.4 101870 76
2007-07-30 07:33:10 51°19.617 2°58.312 7 247 15.4 101870 76
2007-07-30 07:33:15 51°19.623 2°58.335 6.7 285 15.4 101870 76
2007-07-30 07:33:20 51°19.629 2°58.358 6.7 242 15.4 101870 76
2007-07-30 07:33:25 51°19.634 2°58.38 9.3 284 15.4 101870 75
2007-07-30 07:33:29 51°19.639 2°58.398 7 245 15.4 101870 75
2007-07-30 07:33:34 51°19.644 2°58.421 7.9 285 15.4 101860 75
2007-07-30 07:33:40 51°19.651 2°58.449 8.1 247 15.4 101860 75
2007-07-30 07:33:45 51°19.659 2°58.47 8.7 251 15.4 101870 75
2007-07-30 07:33:50 51°19.662 2°58.495 9 247 15.4 101870 75
2007-07-30 07:33:54 51°19.669 2°58.512 5.9 280 15.3 101870 75
2007-07-30 07:34:00 51°19.675 2°58.539 6.7 243 15.3 101870 75
2007-07-30 07:34:05 51°19.682 2°58.561 8.5 279 15.3 101870 75
2007-07-30 07:34:10 51°19.688 2°58.584 6.7 248 15.3 101870 75
2007-07-30 07:34:15 51°19.694 2°58.606 8.3 20 15.3 101870 75
2007-07-30 07:34:20 51°19.7 2°58.629 7.1 247 15.3 101870 75
2007-07-30 07:34:25 51°19.706 2°58.651 8.2 281 15.3 101870 75
2007-07-30 07:34:30 51°19.71 2°58.674 6.2 249 15.3 101870 75
2007-07-30 07:34:34 51°19.714 2°58.692 7.5 279 15.3 101870 76
2007-07-30 07:34:40 51°19.72 2°58.72 6.6 249 15.3 101870 76
2007-07-30 07:34:45 51°19.725 2°58.743 6 246 15.3 101870 76
2007-07-30 07:34:50 51°19.729 2°58.766 7.3 247 15.3 101870 76
2007-07-30 07:34:54 51°19.732 2°58.785 6.8 284 15.3 101860 75
2007-07-30 07:35:00 51°19.737 2°58.813 5.2 247 15.3 101860 75
2007-07-30 07:35:05 51°19.742 2°58.837 7.5 21 15.3 101880 75
2007-07-30 07:35:10 51°19.747 2°58.86 7 250 15.3 101880 75
2007-07-30 07:35:14 51°19.752 2°58.878 5.2 282 15.3 101880 76
2007-07-30 07:35:20 51°19.756 2°58.906 6.5 245 15.3 101880 76
2007-07-30 07:35:25 51°19.761 2°58.93 5.6 280 15.3 101880 76
2007-07-30 07:35:30 51°19.766 2°58.953 6.5 247 15.3 101880 76
2007-07-30 07:35:35 51°19.769 2°58.977 4.9 21 15.3 101870 75
2007-07-30 07:35:40 51°19.775 2°59 6.4 250 15.3 101870 75
2007-07-30 07:35:45 51°19.777 2°59.024 5.7 248 15.3 101870 75
2007-07-30 07:35:49 51°19.782 2°59.042 6.2 248 15.3 101870 75
2007-07-30 07:35:54 51°19.786 2°59.066 5.5 250 15.3 101870 75
2007-07-30 07:36:00 51°19.791 2°59.093 6.8 251 15.3 101870 75
2007-07-30 07:36:05 51°19.796 2°59.117 5.6 281 15.4 101870 75
2007-07-30 07:36:10 51°19.801 2°59.139 6.1 256 15.4 101870 75
2007-07-30 07:36:14 51°19.804 2°59.158 4.5 255 15.3 101870 75
2007-07-30 07:36:20 51°19.81 2°59.186 5.6 251 15.3 101870 75
2007-07-30 07:36:25 51°19.813 2°59.209 6 281 15.3 101880 75
2007-07-30 07:36:30 51°19.818 2°59.232 4.5 254 15.3 101880 75
2007-07-30 07:36:35 51°19.822 2°59.255 5.3 251 15.4 101870 75
2007-07-30 07:36:40 51°19.827 2°59.278 5.9 254 15.4 101870 75
2007-07-30 07:36:45 51°19.832 2°59.301 5.7 252 15.4 101870 75
2007-07-30 07:36:50 51°19.837 2°59.324 4.6 250 15.4 101870 75
2007-07-30 07:36:54 51°19.839 2°59.343 7.4 281 15.4 101880 75
2007-07-30 07:37:00 51°19.846 2°59.37 4.7 255 15.4 101880 75
2007-07-30 07:37:05 51°19.85 2°59.393 6 282 15.3 101880 75
2007-07-30 07:37:10 51°19.856 2°59.416 5.2 249 15.3 101880 75
2007-07-30 07:37:14 51°19.86 2°59.434 5.4 283 15.4 101880 76
2007-07-30 07:37:20 51°19.865 2°59.462 6.9 253 15.4 101880 76
2007-07-30 07:37:25 51°19.87 2°59.486 6.5 280 15.4 101870 76
2007-07-30 07:37:30 51°19.876 2°59.508 4.7 252 15.4 101870 76
2007-07-30 07:37:35 51°19.88 2°59.531 4.9 250 15.4 101860 76
2007-07-30 07:37:40 51°19.885 2°59.554 6.8 249 15.4 101860 76
2007-07-30 07:37:45 51°19.889 2°59.578 6 251 15.4 101880 77
2007-07-30 07:37:49 51°19.893 2°59.596 7.8 249 15.4 101880 77
2007-07-30 07:37:55 51°19.899 2°59.623 6.2 284 15.4 101880 77
2007-07-30 07:38:00 51°19.903 2°59.646 7.7 247 15.4 101880 77
2007-07-30 07:38:05 51°19.908 2°59.669 5.4 285 15.4 101870 77
2007-07-30 07:38:09 51°19.912 2°59.687 6.1 246 15.4 101870 77
2007-07-30 07:38:14 51°19.917 2°59.71 4.6 19 15.4 101870 77
2007-07-30 07:38:20 51°19.924 2°59.736 6.6 246 15.4 101870 77
2007-07-30 07:38:25 51°19.926 2°59.76 8.2 281 15.4 101870 77
2007-07-30 07:38:30 51°19.932 2°59.783 6.2 246 15.4 101870 77
2007-07-30 07:38:34 51°19.935 2°59.802 7.5 250 15.4 101870 77
2007-07-30 07:38:40 51°19.941 2°59.829 7.4 245 15.4 101870 77
2007-07-30 07:38:45 51°19.946 2°59.851 9.3 248 15.4 101860 78
2007-07-30 07:38:50 51°19.951 2°59.874 7.7 252 15.4 101860 78
2007-07-30 07:38:55 51°19.955 2°59.897 6.6 249 15.4 101860 77
2007-07-30 07:39:00 51°19.96 2°59.92 8.6 249 15.4 101860 77
2007-07-30 07:39:05 51°19.966 2°59.943 7.5 279 15.4 101870 78
2007-07-30 07:39:10 51°19.97 2°59.965 9.5 250 15.4 101870 78
2007-07-30 07:39:14 51°19.973 2°59.984 9.3 285 15.4 101870 78
2007-07-30 07:39:20 51°19.98 3°0.011 7.7 250 15.4 101870 78
2007-07-30 07:39:25 51°19.984 3°0.034 7.4 250 15.4 101860 78
2007-07-30 07:39:30 51°19.99 3°0.057 8.5 250 15.4 101860 78
2007-07-30 07:39:34 51°19.992 3°0.077 8.1 278 15.4 101860 77
2007-07-30 07:39:40 51°19.999 3°0.103 8.4 252 15.4 101860 77
2007-07-30 07:39:45 51°20.002 3°0.127 6.6 251 15.4 101860 77
2007-07-30 07:39:50 51°20.008 3°0.149 7.4 248 15.4 101860 77
2007-07-30 07:39:55 51°20.012 3°0.173 8.2 246 15.4 101850 77
2007-07-30 07:40:00 51°20.017 3°0.196 6.6 246 15.4 101850 77
2007-07-30 07:40:05 51°20.021 3°0.22 7.2 280 15.4 101860 77
2007-07-30 07:40:09 51°20.026 3°0.237 7.2 249 15.4 101860 77
2007-07-30 07:40:15 51°20.031 3°0.265 7.2 285 15.4 101860 77
2007-07-30 07:40:20 51°20.037 3°0.288 6.1 248 15.4 101860 77
2007-07-30 07:40:25 51°20.041 3°0.312 7.2 284 15.4 101860 78
2007-07-30 07:40:29 51°20.045 3°0.33 6.7 245 15.4 101860 78
2007-07-30 07:40:34 51°20.049 3°0.353 6.7 248 15.4 101860 77
2007-07-30 07:40:40 51°20.055 3°0.382 6.1 247 15.4 101860 77
2007-07-30 07:40:45 51°20.06 3°0.405 7.2 249 15.3 101850 77
2007-07-30 07:40:50 51°20.064 3°0.428 6.5 251 15.3 101850 77
2007-07-30 07:40:55 51°20.07 3°0.451 7.9 246 15.4 101870 77
2007-07-30 07:41:00 51°20.074 3°0.474 5.8 248 15.4 101870 77
2007-07-30 07:41:05 51°20.08 3°0.497 6.6 283 15.4 101870 77
2007-07-30 07:41:10 51°20.085 3°0.52 5.6 246 15.4 101870 77
2007-07-30 07:41:14 51°20.089 3°0.539 6.9 279 15.4 101870 78
2007-07-30 07:41:20 51°20.095 3°0.566 5.3 244 15.4 101870 78
2007-07-30 07:41:25 51°20.1 3°0.589 7.2 284 15.4 101890 78
2007-07-30 07:41:30 51°20.104 3°0.613 8.4 246 15.4 101890 78
2007-07-30 07:41:34 51°20.109 3°0.631 7.5 285 15.4 101870 78
2007-07-30 07:41:40 51°20.114 3°0.66 7.9 248 15.4 101870 78
2007-07-30 07:41:45 51°20.12 3°0.683 8.5 247 15.4 101870 78
2007-07-30 07:41:50 51°20.124 3°0.707 9.7 248 15.4 101870 78
2007-07-30 07:41:54 51°20.129 3°0.725 6.5 282 15.4 101860 78
2007-07-30 07:42:00 51°20.134 3°0.753 6.4 247 15.4 101860 78
2007-07-30 07:42:05 51°20.138 3°0.777 6.4 285 15.4 101870 78
2007-07-30 07:42:10 51°20.144 3°0.8 5.8 247 15.4 101870 78
2007-07-30 07:42:15 51°20.148 3°0.824 7.3 285 15.4 101870 77
2007-07-30 07:42:20 51°20.153 3°0.847 7.2 249 15.4 101870 77
2007-07-30 07:42:25 51°20.158 3°0.87 5.9 283 15.4 101880 77
2007-07-30 07:42:29 51°20.162 3°0.889 7.7 252 15.4 101880 77
2007-07-30 07:42:35 51°20.168 3°0.917 4.9 283 15.4 101860 77
2007-07-30 07:42:40 51°20.172 3°0.941 6.4 247 15.4 101860 77
2007-07-30 07:42:45 51°20.178 3°0.964 7.7 26 15.4 101870 76
2007-07-30 07:42:49 51°20.181 3°0.983 6.6 246 15.4 101870 76
2007-07-30 07:42:54 51°20.187 3°1.006 7.2 282 15.4 101880 76
2007-07-30 07:43:00 51°20.192 3°1.034 7.9 243 15.4 101880 76
2007-07-30 07:43:05 51°20.198 3°1.057 8.5 281 15.4 101880 76
2007-07-30 07:43:10 51°20.203 3°1.08 7.2 248 15.4 101880 76
2007-07-30 07:43:15 51°20.208 3°1.104 8.5 247 15.4 101870 77
2007-07-30 07:43:20 51°20.213 3°1.127 7.7 248 15.4 101870 77
2007-07-30 07:43:25 51°20.219 3°1.15 6.1 279 15.5 101860 76
2007-07-30 07:43:30 51°20.223 3°1.174 7.2 249 15.5 101860 76
2007-07-30 07:43:34 51°20.228 3°1.192 6 278 15.5 101870 76
2007-07-30 07:43:40 51°20.233 3°1.221 6.7 250 15.5 101870 76
2007-07-30 07:43:45 51°20.239 3°1.244 6.1 21 15.5 101870 76
2007-07-30 07:43:50 51°20.243 3°1.268 8.9 249 15.5 101870 76
2007-07-30 07:43:54 51°20.249 3°1.285 5.1 280 15.5 101860 76
2007-07-30 07:44:00 51°20.254 3°1.313 7.3 246 15.5 101860 76
2007-07-30 07:44:05 51°20.261 3°1.336 4.9 286 15.5 101880 76
2007-07-30 07:44:10 51°20.265 3°1.36 7.2 248 15.5 101880 76
2007-07-30 07:44:15 51°20.272 3°1.382 7.8 252 15.5 101880 76
2007-07-30 07:44:20 51°20.275 3°1.406 6.3 251 15.5 101880 76
2007-07-30 07:44:25 51°20.282 3°1.428 3.7 278 15.5 101880 76
2007-07-30 07:44:29 51°20.284 3°1.448 4.6 252 15.5 101880 76
2007-07-30 07:44:35 51°20.29 3°1.476 5.7 279 15.5 101890 75
2007-07-30 07:44:40 51°20.294 3°1.499 5.8 247 15.5 101890 75
2007-07-30 07:44:45 51°20.299 3°1.522 4.9 249 15.5 101870 75
2007-07-30 07:44:49 51°20.303 3°1.541 4.2 251 15.5 101870 75
2007-07-30 07:44:55 51°20.309 3°1.569 6.2 279 15.5 101870 75
2007-07-30 07:45:00 51°20.314 3°1.592 5.3 251 15.5 101870 75
2007-07-30 07:45:05 51°20.32 3°1.615 6.2 255 15.5 101880 75
2007-07-30 07:45:10 51°20.325 3°1.638 5.2 257 15.5 101880 75
2007-07-30 07:45:14 51°20.329 3°1.657 7.1 283 15.5 101880 75
2007-07-30 07:45:20 51°20.335 3°1.685 6.3 250 15.5 101880 75
2007-07-30 07:45:25 51°20.34 3°1.709 5.1 282 15.6 101870 76
2007-07-30 07:45:30 51°20.346 3°1.732 5.7 249 15.6 101870 76
2007-07-30 07:45:34 51°20.349 3°1.75 6.3 284 15.6 101860 76
2007-07-30 07:45:40 51°20.355 3°1.779 9.4 251 15.6 101860 76
2007-07-30 07:45:45 51°20.361 3°1.802 9.3 249 15.6 101870 76
2007-07-30 07:45:50 51°20.366 3°1.825 6.7 252 15.6 101870 76
2007-07-30 07:45:54 51°20.37 3°1.844 7.1 278 15.6 101870 76
2007-07-30 07:46:00 51°20.377 3°1.872 5.9 251 15.6 101870 76
2007-07-30 07:46:05 51°20.383 3°1.896 6.9 251 15.6 101870 76
2007-07-30 07:46:10 51°20.388 3°1.919 6.4 245 15.6 101870 76
2007-07-30 07:46:14 51°20.392 3°1.938 8.9 281 15.6 101860 76
2007-07-30 07:46:20 51°20.399 3°1.966 5.5 248 15.6 101860 76
2007-07-30 07:46:25 51°20.404 3°1.989 7.8 279 15.6 101880 75
2007-07-30 07:46:30 51°20.408 3°2.013 8.9 249 15.6 101880 75
2007-07-30 07:46:35 51°20.414 3°2.036 6.9 24 15.7 101870 75
2007-07-30 07:46:40 51°20.418 3°2.06 9.4 250 15.7 101870 75
2007-07-30 07:46:45 51°20.423 3°2.083 9.4 249 15.7 101870 76
2007-07-30 07:46:49 51°20.427 3°2.102 6.8 249 15.7 101870 76
2007-07-30 07:46:55 51°20.433 3°2.131 7.6 279 15.7 101860 76
2007-07-30 07:47:00 51°20.438 3°2.155 5.9 248 15.7 101860 76
2007-07-30 07:47:05 51°20.442 3°2.179 7.3 250 15.7 101860 76
2007-07-30 07:47:09 51°20.447 3°2.198 8.4 252 15.7 101860 76
2007-07-30 07:47:14 51°20.452 3°2.221 7.6 252 15.7 101860 76
2007-07-30 07:47:20 51°20.459 3°2.25 7.8 252 15.7 101860 76
2007-07-30 07:47:25 51°20.463 3°2.273 9.4 281 15.7 101880 76
2007-07-30 07:47:30 51°20.468 3°2.297 6.3 256 15.7 101880 76
2007-07-30 07:47:35 51°20.474 3°2.32 5.9 249 15.7 101870 76
2007-07-30 07:47:40 51°20.479 3°2.344 6.3 251 15.7 101870 76
2007-07-30 07:47:45 51°20.484 3°2.367 5.7 253 15.7 101860 75
2007-07-30 07:47:50 51°20.489 3°2.391 6.3 253 15.7 101860 75
2007-07-30 07:47:54 51°20.493 3°2.41 7.7 283 15.7 101860 75
2007-07-30 07:48:00 51°20.498 3°2.439 6.8 256 15.7 101860 75
2007-07-30 07:48:05 51°20.504 3°2.462 5.8 277 15.7 101880 75
2007-07-30 07:48:10 51°20.508 3°2.486 7.5 253 15.7 101880 75
2007-07-30 07:48:14 51°20.513 3°2.505 7.7 278 15.7 101890 75
2007-07-30 07:48:20 51°20.519 3°2.533 5.6 250 15.7 101890 75
2007-07-30 07:48:25 51°20.525 3°2.556 8.9 253 15.7 101870 76
2007-07-30 07:48:30 51°20.529 3°2.58 6.5 240 15.7 101870 76
2007-07-30 07:48:34 51°20.534 3°2.598 6.1 284 15.7 101870 76
2007-07-30 07:48:40 51°20.541 3°2.627 8.8 245 15.7 101870 76
2007-07-30 07:48:45 51°20.545 3°2.651 6.6 22 15.7 101870 75
2007-07-30 07:48:50 51°20.55 3°2.674 8.9 238 15.7 101870 75
2007-07-30 07:48:55 51°20.555 3°2.698 10.7 280 15.7 101860 76
2007-07-30 07:49:00 51°20.56 3°2.722 6.9 245 15.7 101860 76
2007-07-30 07:49:05 51°20.565 3°2.745 6.1 280 15.7 101870 75
2007-07-30 07:49:09 51°20.568 3°2.764 6.4 242 15.7 101870 75
2007-07-30 07:49:15 51°20.574 3°2.792 7 278 15.7 101860 76
2007-07-30 07:49:20 51°20.58 3°2.815 6.3 248 15.7 101860 76
2007-07-30 07:49:25 51°20.584 3°2.838 6.4 248 15.7 101860 75
2007-07-30 07:49:29 51°20.589 3°2.857 7.1 246 15.7 101860 75
2007-07-30 07:49:34 51°20.594 3°2.88 7.7 25 15.7 101880 75
2007-07-30 07:49:40 51°20.601 3°2.908 9.3 248 15.7 101880 75
2007-07-30 07:49:45 51°20.606 3°2.931 9.2 245 15.7 101870 75
2007-07-30 07:49:50 51°20.611 3°2.954 7.8 251 15.7 101870 75
2007-07-30 07:49:55 51°20.617 3°2.976 7.2 249 15.7 101870 74
2007-07-30 07:50:00 51°20.62 3°3.001 8.5 250 15.7 101870 74
2007-07-30 07:50:05 51°20.627 3°3.022 5.8 283 15.7 101870 75
2007-07-30 07:50:10 51°20.63 3°3.047 6.2 246 15.7 101870 75
2007-07-30 07:50:14 51°20.636 3°3.065 5.1 280 15.7 101870 75
2007-07-30 07:50:20 51°20.64 3°3.093 7.4 245 15.7 101870 75
2007-07-30 07:50:25 51°20.646 3°3.115 5.9 279 15.7 101880 75
2007-07-30 07:50:30 51°20.651 3°3.139 5.7 245 15.7 101880 75
2007-07-30 07:50:34 51°20.655 3°3.157 4.7 279 15.7 101880 75
2007-07-30 07:50:40 51°20.661 3°3.185 8.2 247 15.7 101880 75
2007-07-30 07:50:45 51°20.666 3°3.208 6.5 245 15.7 101890 75
2007-07-30 07:50:50 51°20.671 3°3.231 8 245 15.7 101890 75
2007-07-30 07:50:55 51°20.676 3°3.254 8.8 21 15.7 101880 75
2007-07-30 07:51:00 51°20.681 3°3.277 9.7 244 15.7 101880 75
2007-07-30 07:51:05 51°20.687 3°3.3 6.3 278 15.7 101870 75
2007-07-30 07:51:09 51°20.69 3°3.32 7.5 248 15.7 101870 75
2007-07-30 07:51:15 51°20.697 3°3.347 7.7 279 15.7 101880 75
2007-07-30 07:51:20 51°20.702 3°3.37 7.6 246 15.7 101880 75
2007-07-30 07:51:25 51°20.707 3°3.393 6.6 241 15.7 101870 75
2007-07-30 07:51:29 51°20.711 3°3.412 9 245 15.7 101870 75
2007-07-30 07:51:35 51°20.718 3°3.44 8.6 280 15.7 101880 75
2007-07-30 07:51:40 51°20.724 3°3.463 8.1 243 15.7 101880 75
2007-07-30 07:51:45 51°20.728 3°3.486 7 23 15.7 101880 75
2007-07-30 07:51:50 51°20.733 3°3.509 7.3 247 15.7 101880 75
2007-07-30 07:51:54 51°20.737 3°3.528 7.5 286 15.7 101870 75
2007-07-30 07:52:00 51°20.743 3°3.557 7.2 253 15.7 101870 75
2007-07-30 07:52:05 51°20.747 3°3.58 6.3 287 15.7 101870 75
2007-07-30 07:52:10 51°20.752 3°3.603 6.2 251 15.7 101870 75
2007-07-30 07:52:14 51°20.756 3°3.622 6.9 281 15.7 101870 75
2007-07-30 07:52:20 51°20.761 3°3.651 7 248 15.7 101870 75
2007-07-30 07:52:25 51°20.765 3°3.675 5.2 281 15.6 101870 74
2007-07-30 07:52:30 51°20.769 3°3.698 6.3 246 15.6 101870 74
2007-07-30 07:52:34 51°20.771 3°3.718 7.3 277 15.7 101880 74
2007-07-30 07:52:40 51°20.777 3°3.747 5.2 250 15.7 101880 74
2007-07-30 07:52:45 51°20.78 3°3.771 5.3 247 15.7 101880 75
2007-07-30 07:52:50 51°20.784 3°3.795 4.4 252 15.7 101880 75
2007-07-30 07:52:54 51°20.787 3°3.815 5.7 283 15.7 101890 75
2007-07-30 07:53:00 51°20.792 3°3.843 7 250 15.7 101890 75
2007-07-30 07:53:05 51°20.795 3°3.868 7.8 278 15.7 101860 75
2007-07-30 07:53:10 51°20.8 3°3.891 6.8 257 15.7 101860 75
2007-07-30 07:53:15 51°20.802 3°3.915 5.2 21 15.7 101870 74
2007-07-30 07:53:20 51°20.807 3°3.939 6.5 252 15.7 101870 74
2007-07-30 07:53:25 51°20.81 3°3.963 7.5 285 15.7 101880 74
2007-07-30 07:53:29 51°20.812 3°3.983 7.9 258 15.7 101880 74
2007-07-30 07:53:35 51°20.816 3°4.012 9.6 284 15.7 101870 75
2007-07-30 07:53:40 51°20.82 3°4.036 5.3 249 15.7 101870 75
2007-07-30 07:53:45 51°20.823 3°4.06 6.3 21 15.7 101870 75
2007-07-30 07:53:49 51°20.826 3°4.079 6.1 245 15.7 101870 75
2007-07-30 07:53:54 51°20.831 3°4.103 6.2 280 15.7 101880 75
2007-07-30 07:54:00 51°20.835 3°4.132 8.4 253 15.7 101880 75
2007-07-30 07:54:05 51°20.84 3°4.156 6.3 279 15.7 101870 75
2007-07-30 07:54:10 51°20.844 3°4.18 5.4 251 15.7 101870 75
2007-07-30 07:54:15 51°20.847 3°4.205 6.9 21 15.7 101890 75
2007-07-30 07:54:20 51°20.853 3°4.228 6.8 251 15.7 101890 75
2007-07-30 07:54:25 51°20.856 3°4.252 8.8 280 15.7 101880 76
2007-07-30 07:54:30 51°20.86 3°4.275 7.7 256 15.7 101880 76
2007-07-30 07:54:34 51°20.864 3°4.295 7.6 254 15.7 101870 75
2007-07-30 07:54:40 51°20.869 3°4.324 7.6 254 15.7 101870 75
2007-07-30 07:54:45 51°20.872 3°4.348 6.1 248 15.7 101870 75
2007-07-30 07:54:50 51°20.877 3°4.371 5.7 252 15.7 101870 75
2007-07-30 07:54:54 51°20.879 3°4.391 7 251 15.7 101870 75
2007-07-30 07:55:00 51°20.883 3°4.42 9.6 252 15.7 101870 75
2007-07-30 07:55:05 51°20.887 3°4.444 10.1 254 15.7 101880 75
2007-07-30 07:55:10 51°20.891 3°4.469 6.8 253 15.7 101880 75
2007-07-30 07:55:14 51°20.893 3°4.488 7.4 254 15.7 101880 75
2007-07-30 07:55:20 51°20.898 3°4.517 5.9 247 15.7 101880 75
2007-07-30 07:55:25 51°20.901 3°4.541 6.5 251 15.6 101880 75
2007-07-30 07:55:30 51°20.906 3°4.564 5.5 253 15.6 101880 75
2007-07-30 07:55:35 51°20.908 3°4.59 5.1 252 15.6 101870 74
2007-07-30 07:55:40 51°20.913 3°4.613 5.6 254 15.6 101870 74
2007-07-30 07:55:45 51°20.916 3°4.637 6.4 254 15.6 101880 74
2007-07-30 07:55:49 51°20.919 3°4.656 7.2 254 15.6 101880 74
2007-07-30 07:55:54 51°20.922 3°4.681 5.7 255 15.6 101870 74
2007-07-30 07:56:00 51°20.928 3°4.709 4.1 258 15.6 101870 74
2007-07-30 07:56:05 51°20.93 3°4.734 4.7 250 15.5 101870 74
2007-07-30 07:56:10 51°20.935 3°4.758 6.3 253 15.5 101870 74
2007-07-30 07:56:15 51°20.938 3°4.782 8.1 257 15.5 101880 74
2007-07-30 07:56:20 51°20.941 3°4.806 5.8 246 15.5 101880 74
2007-07-30 07:56:25 51°20.945 3°4.831 6.9 22 15.5 101890 74
2007-07-30 07:56:29 51°20.948 3°4.851 7.8 249 15.5 101890 74
2007-07-30 07:56:34 51°20.951 3°4.875 6 250 15.5 101880 74
2007-07-30 07:56:40 51°20.956 3°4.904 5.7 251 15.5 101880 74
2007-07-30 07:56:45 51°20.959 3°4.929 7.6 249 15.5 101880 75
2007-07-30 07:56:50 51°20.963 3°4.953 6.4 247 15.5 101880 75
2007-07-30 07:56:54 51°20.965 3°4.973 6 20 15.5 101870 75
2007-07-30 07:57:00 51°20.971 3°5.001 4.1 249 15.5 101870 75
2007-07-30 07:57:05 51°20.973 3°5.027 6.6 251 15.6 101870 75
2007-07-30 07:57:10 51°20.978 3°5.051 4.5 253 15.6 101870 75
2007-07-30 07:57:14 51°20.98 3°5.07 6.8 252 15.6 101870 75
2007-07-30 07:57:20 51°20.984 3°5.099 8.4 248 15.6 101870 75
2007-07-30 07:57:25 51°20.989 3°5.123 6.6 247 15.6 101880 75
2007-07-30 07:57:30 51°20.991 3°5.148 8.8 254 15.6 101880 75
2007-07-30 07:57:34 51°20.996 3°5.167 9.8 252 15.6 101880 75
2007-07-30 07:57:40 51°20.999 3°5.196 9.8 252 15.6 101880 75
2007-07-30 07:57:45 51°21.002 3°5.22 5.9 251 15.6 101890 75
2007-07-30 07:57:50 51°21.006 3°5.244 6.8 251 15.6 101890 75
2007-07-30 07:57:55 51°21.009 3°5.268 6.6 254 15.6 101880 76
2007-07-30 07:58:00 51°21.013 3°5.292 4.4 246 15.6 101880 76
2007-07-30 07:58:05 51°21.015 3°5.317 5.3 256 15.6 101870 75
2007-07-30 07:58:09 51°21.019 3°5.336 6.6 257 15.6 101870 75
2007-07-30 07:58:14 51°21.022 3°5.36 8 255 15.6 101880 75
2007-07-30 07:58:20 51°21.026 3°5.389 5.8 250 15.6 101880 75
2007-07-30 07:58:25 51°21.031 3°5.413 8.3 255 15.6 101860 75
2007-07-30 07:58:30 51°21.033 3°5.438 7.2 253 15.6 101860 75
2007-07-30 07:58:34 51°21.036 3°5.457 6.2 257 15.6 101870 75
2007-07-30 07:58:40 51°21.042 3°5.486 5.3 251 15.6 101870 75
2007-07-30 07:58:45 51°21.045 3°5.51 4.9 251 15.6 101880 75
2007-07-30 07:58:49 51°21.048 3°5.529 5.6 256 15.6 101880 75
2007-07-30 07:58:54 51°21.051 3°5.553 5.3 255 15.6 101880 75
2007-07-30 07:58:59 51°21.055 3°5.578 4.2 259 15.6 101880 75
2007-07-30 07:59:05 51°21.059 3°5.607 5.6 280 15.6 101890 75
2007-07-30 07:59:10 51°21.063 3°5.631 5.7 255 15.6 101890 75
2007-07-30 07:59:14 51°21.066 3°5.65 4.8 258 15.6 101880 75
2007-07-30 07:59:20 51°21.07 3°5.679 7.2 255 15.6 101880 75
2007-07-30 07:59:25 51°21.073 3°5.704 6.1 279 15.6 101870 74
2007-07-30 07:59:30 51°21.077 3°5.728 6.1 253 15.6 101870 74
2007-07-30 07:59:34 51°21.079 3°5.748 4.7 20 15.6 101880 74
2007-07-30 07:59:40 51°21.085 3°5.775 4 254 15.6 101880 74
2007-07-30 07:59:45 51°21.087 3°5.8 5.1 252 15.6 101880 74
2007-07-30 07:59:50 51°21.093 3°5.823 5.6 256 15.6 101880 74
2007-07-30 07:59:54 51°21.095 3°5.842 5.1 256 15.6 101880 74
2007-07-30 08:00:00 51°21.102 3°5.87 3.8 250 15.6 101880 74
2007-07-30 08:00:05 51°21.104 3°5.894 4.5 253 15.6 101890 74
2007-07-30 08:00:10 51°21.109 3°5.918 7.5 255 15.6 101890 74
2007-07-30 08:00:15 51°21.114 3°5.941 8.1 256 15.6 101880 74
2007-07-30 08:00:20 51°21.118 3°5.965 7.1 256 15.6 101880 74
2007-07-30 08:00:25 51°21.122 3°5.989 5.9 255 15.6 101890 74
2007-07-30 08:00:29 51°21.125 3°6.008 7.4 247 15.6 101890 74
2007-07-30 08:00:34 51°21.13 3°6.032 6.6 252 15.7 101880 75
2007-07-30 08:00:40 51°21.135 3°6.061 6.3 254 15.7 101880 75
2007-07-30 08:00:45 51°21.14 3°6.084 6.6 251 15.7 101870 74
2007-07-30 08:00:50 51°21.144 3°6.108 4.5 257 15.7 101870 74
2007-07-30 08:00:54 51°21.147 3°6.128 7.1 259 15.7 101900 74
2007-07-30 08:01:00 51°21.152 3°6.156 4 249 15.7 101900 74
2007-07-30 08:01:05 51°21.156 3°6.18 6.8 255 15.7 101880 75
2007-07-30 08:01:09 51°21.16 3°6.199 4.4 248 15.7 101880 75
2007-07-30 08:01:14 51°21.164 3°6.223 6.8 250 15.7 101880 75
2007-07-30 08:01:20 51°21.17 3°6.252 6 252 15.7 101880 75
2007-07-30 08:01:25 51°21.174 3°6.276 6.7 281 15.8 101880 75
2007-07-30 08:01:30 51°21.178 3°6.3 6.9 253 15.8 101880 75
2007-07-30 08:01:34 51°21.182 3°6.319 6.3 252 15.8 101870 75
2007-07-30 08:01:40 51°21.186 3°6.348 7 251 15.8 101870 75
2007-07-30 08:01:45 51°21.191 3°6.372 6.2 252 15.8 101880 75
2007-07-30 08:01:50 51°21.195 3°6.396 7.8 247 15.8 101880 75
2007-07-30 08:01:54 51°21.199 3°6.415 6.9 249 15.8 101870 75
2007-07-30 08:02:00 51°21.204 3°6.444 6.4 250 15.8 101870 75
2007-07-30 08:02:05 51°21.207 3°6.468 5.6 249 15.8 101870 74
2007-07-30 08:02:10 51°21.212 3°6.492 7.3 251 15.8 101870 74
2007-07-30 08:02:15 51°21.213 3°6.518 6 254 15.8 101880 75
2007-07-30 08:02:20 51°21.217 3°6.542 5.9 257 15.8 101880 75
2007-07-30 08:02:25 51°21.218 3°6.567 8.9 257 15.8 101880 75
2007-07-30 08:02:30 51°21.221 3°6.592 6.6 258 15.8 101880 75
2007-07-30 08:02:35 51°21.223 3°6.617 6.8 256 15.8 101860 75
2007-07-30 08:02:40 51°21.225 3°6.642 5.4 247 15.8 101860 75
2007-07-30 08:02:45 51°21.227 3°6.667 5 246 15.8 101870 74
2007-07-30 08:02:50 51°21.229 3°6.692 5 252 15.8 101870 74
2007-07-30 08:02:55 51°21.231 3°6.717 6.7 251 15.8 101860 74
2007-07-30 08:03:00 51°21.233 3°6.742 7.1 252 15.8 101860 74
2007-07-30 08:03:05 51°21.235 3°6.766 7.1 254 15.8 101890 74
2007-07-30 08:03:10 51°21.236 3°6.792 7.2 251 15.8 101890 74
2007-07-30 08:03:14 51°21.239 3°6.812 7 252 15.8 101880 75
2007-07-30 08:03:20 51°21.241 3°6.842 7.1 248 15.8 101880 75
2007-07-30 08:03:25 51°21.245 3°6.866 6.7 251 15.8 101870 75
2007-07-30 08:03:29 51°21.245 3°6.887 6.9 256 15.8 101870 75
2007-07-30 08:03:34 51°21.249 3°6.911 5.6 253 15.8 101890 75
2007-07-30 08:03:40 51°21.25 3°6.942 6 253 15.8 101890 75
2007-07-30 08:03:45 51°21.253 3°6.966 7.4 251 15.8 101880 74
2007-07-30 08:03:50 51°21.258 3°6.99 7 248 15.8 101880 74
2007-07-30 08:03:55 51°21.262 3°7.015 8.3 251 15.8 101870 74
2007-07-30 08:04:00 51°21.266 3°7.038 7.5 250 15.8 101870 74
2007-07-30 08:04:05 51°21.272 3°7.062 8.1 280 15.8 101870 74
2007-07-30 08:04:10 51°21.277 3°7.085 6.9 252 15.8 101870 74
2007-07-30 08:04:14 51°21.282 3°7.104 6.1 251 15.8 101880 74
2007-07-30 08:04:20 51°21.289 3°7.132 8.4 252 15.8 101880 74
2007-07-30 08:04:25 51°21.295 3°7.155 5.9 251 15.8 101860 74
2007-07-30 08:04:30 51°21.301 3°7.178 8 254 15.8 101860 74
2007-07-30 08:04:35 51°21.308 3°7.2 7.6 253 15.7 101870 73
2007-07-30 08:04:40 51°21.314 3°7.223 6.6 256 15.7 101870 73
2007-07-30 08:04:45 51°21.32 3°7.246 6.6 256 15.7 101880 73
2007-07-30 08:04:49 51°21.326 3°7.263 5.5 257 15.7 101880 73
2007-07-30 08:04:55 51°21.333 3°7.291 4.8 256 15.7 101860 73
2007-07-30 08:05:00 51°21.341 3°7.313 6.5 256 15.7 101860 73
2007-07-30 08:05:05 51°21.347 3°7.335 6.1 256 15.7 101860 73
2007-07-30 08:05:10 51°21.354 3°7.358 4.1 249 15.7 101860 73
2007-07-30 08:05:15 51°21.36 3°7.38 7.1 251 15.6 101880 73
2007-07-30 08:05:20 51°21.366 3°7.404 6.7 258 15.6 101880 73
2007-07-30 08:05:25 51°21.371 3°7.427 5.7 260 15.6 101870 73
2007-07-30 08:05:30 51°21.376 3°7.451 3.8 242 15.6 101870 73
2007-07-30 08:05:34 51°21.378 3°7.471 4.6 248 15.6 101880 73
2007-07-30 08:05:40 51°21.381 3°7.5 4.5 261 15.6 101880 73
2007-07-30 08:05:45 51°21.384 3°7.525 2.9 263 15.6 101880 73
2007-07-30 08:05:49 51°21.384 3°7.545 3.1 265 15.6 101880 73
2007-07-30 08:05:54 51°21.385 3°7.57 3.4 264 15.6 101860 74
2007-07-30 08:06:00 51°21.385 3°7.601 6 258 15.6 101860 74
2007-07-30 08:06:05 51°21.386 3°7.626 4.6 285 15.7 101880 74
2007-07-30 08:06:10 51°21.389 3°7.65 7.8 253 15.7 101880 74
2007-07-30 08:06:15 51°21.39 3°7.675 5.8 259 15.7 101880 74
2007-07-30 08:06:20 51°21.393 3°7.699 5.5 256 15.7 101880 74
2007-07-30 08:06:25 51°21.396 3°7.724 6.1 282 15.7 101880 75
2007-07-30 08:06:30 51°21.402 3°7.747 7.4 250 15.7 101880 75
2007-07-30 08:06:34 51°21.406 3°7.765 6.4 253 15.7 101870 75
2007-07-30 08:06:40 51°21.413 3°7.792 5.9 251 15.7 101870 75
2007-07-30 08:06:45 51°21.419 3°7.815 7.6 250 15.7 101880 75
2007-07-30 08:06:50 51°21.425 3°7.837 6.9 246 15.7 101880 75
2007-07-30 08:06:55 51°21.432 3°7.859 8.9 247 15.7 101880 75
2007-07-30 08:07:00 51°21.438 3°7.882 7 238 15.7 101880 75
2007-07-30 08:07:05 51°21.444 3°7.904 8.7 255 15.7 101870 75
2007-07-30 08:07:09 51°21.449 3°7.922 9.6 252 15.7 101870 75
2007-07-30 08:07:15 51°21.458 3°7.948 9.6 251 15.7 101880 75
2007-07-30 08:07:20 51°21.465 3°7.971 8.6 252 15.7 101880 75
2007-07-30 08:07:25 51°21.472 3°7.992 7.1 253 15.7 101870 75
2007-07-30 08:07:30 51°21.479 3°8.015 7.8 252 15.7 101870 75
2007-07-30 08:07:35 51°21.485 3°8.038 6.4 250 15.7 101860 74
2007-07-30 08:07:40 51°21.492 3°8.06 7.7 254 15.7 101860 74
2007-07-30 08:07:45 51°21.499 3°8.083 7 255 15.6 101870 74
2007-07-30 08:07:50 51°21.505 3°8.106 6.4 255 15.6 101870 74
2007-07-30 08:07:54 51°21.51 3°8.124 6.6 254 15.6 101880 74
2007-07-30 08:08:00 51°21.517 3°8.152 8.4 255 15.6 101880 74
2007-07-30 08:08:05 51°21.524 3°8.175 5.4 259 15.6 101860 74
2007-07-30 08:08:09 51°21.528 3°8.193 7.1 251 15.6 101860 74
2007-07-30 08:08:14 51°21.535 3°8.216 8.8 255 15.6 101870 74
2007-07-30 08:08:20 51°21.542 3°8.244 5.3 250 15.6 101870 74
2007-07-30 08:08:25 51°21.548 3°8.267 7.4 281 15.6 101880 74
2007-07-30 08:08:30 51°21.554 3°8.29 8.2 251 15.6 101880 74
2007-07-30 08:08:35 51°21.56 3°8.313 7.4 249 15.6 101880 74
2007-07-30 08:08:40 51°21.567 3°8.336 8 250 15.6 101880 74
2007-07-30 08:08:45 51°21.573 3°8.36 6.7 250 15.6 101870 75
2007-07-30 08:08:50 51°21.579 3°8.383 8.2 252 15.6 101870 75
2007-07-30 08:08:54 51°21.584 3°8.401 7.5 20 15.6 101870 75
2007-07-30 08:09:00 51°21.592 3°8.428 6 251 15.6 101870 75
2007-07-30 08:09:05 51°21.598 3°8.451 7.4 19 15.6 101860 75
2007-07-30 08:09:10 51°21.604 3°8.475 5.8 249 15.6 101860 75
2007-07-30 08:09:15 51°21.611 3°8.498 7.3 246 15.6 101850 75
2007-07-30 08:09:20 51°21.617 3°8.521 7.7 251 15.6 101850 75
2007-07-30 08:09:25 51°21.624 3°8.544 6.6 248 15.6 101860 75
2007-07-30 08:09:29 51°21.628 3°8.563 7.2 253 15.6 101860 75
2007-07-30 08:09:35 51°21.637 3°8.59 8.5 22 15.6 101870 76
2007-07-30 08:09:40 51°21.642 3°8.614 8.7 248 15.6 101870 76
2007-07-30 08:09:45 51°21.648 3°8.636 6.7 249 15.6 101870 76
2007-07-30 08:09:50 51°21.654 3°8.66 7.2 248 15.6 101870 76
2007-07-30 08:09:55 51°21.661 3°8.682 8.9 22 15.6 101860 76
2007-07-30 08:10:00 51°21.667 3°8.705 7.1 246 15.6 101860 76
2007-07-30 08:10:05 51°21.673 3°8.728 7.7 280 15.6 101870 76
2007-07-30 08:10:10 51°21.68 3°8.75 8.7 247 15.6 101870 76
2007-07-30 08:10:14 51°21.685 3°8.768 9 247 15.6 101860 76
2007-07-30 08:10:20 51°21.694 3°8.795 7.5 245 15.6 101860 76
2007-07-30 08:10:25 51°21.701 3°8.817 7.5 21 15.6 101870 76
2007-07-30 08:10:29 51°21.706 3°8.836 9.9 246 15.6 101870 76
2007-07-30 08:10:34 51°21.713 3°8.858 8.1 248 15.6 101850 76
2007-07-30 08:10:40 51°21.721 3°8.886 8.2 244 15.6 101850 76
2007-07-30 08:10:45 51°21.729 3°8.908 9.7 23 15.6 101860 75
2007-07-30 08:10:50 51°21.736 3°8.931 8.4 252 15.6 101860 75
2007-07-30 08:10:55 51°21.743 3°8.954 8.5 21 15.6 101860 76
2007-07-30 08:11:00 51°21.75 3°8.976 9.4 251 15.6 101860 76
2007-07-30 08:11:05 51°21.757 3°8.999 7.8 286 15.5 101870 75
2007-07-30 08:11:10 51°21.764 3°9.021 8.6 250 15.5 101870 75
2007-07-30 08:11:14 51°21.771 3°9.039 7.9 249 15.6 101860 75
2007-07-30 08:11:20 51°21.779 3°9.066 9.6 249 15.6 101860 75
2007-07-30 08:11:25 51°21.787 3°9.088 7.6 250 15.5 101860 76
2007-07-30 08:11:30 51°21.794 3°9.111 9.4 250 15.5 101860 76
2007-07-30 08:11:35 51°21.801 3°9.134 6.1 247 15.6 101870 75
2007-07-30 08:11:40 51°21.808 3°9.157 9.3 244 15.6 101870 75
2007-07-30 08:11:45 51°21.816 3°9.179 7.9 20 15.6 101860 75
2007-07-30 08:11:49 51°21.822 3°9.198 6.2 245 15.6 101860 75
2007-07-30 08:11:55 51°21.831 3°9.224 7.3 246 15.6 101860 75
2007-07-30 08:12:00 51°21.838 3°9.248 7.6 246 15.6 101860 75
2007-07-30 08:12:05 51°21.846 3°9.27 7.3 250 15.6 101860 75
2007-07-30 08:12:10 51°21.852 3°9.293 8.2 248 15.6 101860 75
2007-07-30 08:12:15 51°21.86 3°9.315 6.3 249 15.5 101860 74
2007-07-30 08:12:20 51°21.867 3°9.338 6 249 15.5 101860 74
2007-07-30 08:12:25 51°21.875 3°9.361 8.6 279 15.5 101860 74
2007-07-30 08:12:30 51°21.882 3°9.383 5.1 246 15.5 101860 74
2007-07-30 08:12:34 51°21.887 3°9.403 7.4 250 15.5 101870 74
2007-07-30 08:12:40 51°21.897 3°9.429 6.7 246 15.5 101870 74
2007-07-30 08:12:45 51°21.903 3°9.453 4.4 22 15.5 101860 74
2007-07-30 08:12:49 51°21.91 3°9.47 6.5 247 15.5 101860 74
2007-07-30 08:12:54 51°21.917 3°9.494 7.3 243 15.5 101860 74
2007-07-30 08:13:00 51°21.926 3°9.521 7.2 244 15.5 101860 74
2007-07-30 08:13:05 51°21.932 3°9.545 8.6 280 15.5 101860 74
2007-07-30 08:13:10 51°21.94 3°9.567 6.4 242 15.5 101860 74
2007-07-30 08:13:15 51°21.947 3°9.591 9.5 24 15.6 101860 75
2007-07-30 08:13:20 51°21.955 3°9.614 7.9 246 15.6 101860 75
2007-07-30 08:13:25 51°21.962 3°9.637 9.4 280 15.6 101870 75
2007-07-30 08:13:30 51°21.97 3°9.659 7.5 241 15.6 101870 75
2007-07-30 08:13:34 51°21.975 3°9.678 7.9 244 15.6 101860 75
2007-07-30 08:13:40 51°21.986 3°9.705 8.8 242 15.6 101860 75
2007-07-30 08:13:45 51°21.992 3°9.728 7.8 26 15.5 101860 75
2007-07-30 08:13:50 51°22 3°9.751 7.5 244 15.5 101860 75
2007-07-30 08:13:55 51°22.007 3°9.774 9.5 246 15.6 101850 75
2007-07-30 08:14:00 51°22.014 3°9.797 8.5 243 15.6 101850 75
2007-07-30 08:14:05 51°22.021 3°9.821 8.1 249 15.5 101870 75
2007-07-30 08:14:10 51°22.028 3°9.845 9.8 248 15.5 101870 75
2007-07-30 08:14:15 51°22.035 3°9.868 7.4 25 15.5 101850 75
2007-07-30 08:14:20 51°22.042 3°9.892 8.7 247 15.5 101850 75
2007-07-30 08:14:25 51°22.048 3°9.916 6.3 21 15.6 101870 74
2007-07-30 08:14:30 51°22.055 3°9.939 4.6 241 15.6 101870 74
2007-07-30 08:14:35 51°22.062 3°9.963 9.3 23 15.5 101860 74
2007-07-30 08:14:40 51°22.068 3°9.988 7 248 15.5 101860 74
2007-07-30 08:14:45 51°22.074 3°10.011 8.9 248 15.6 101860 74
2007-07-30 08:14:50 51°22.081 3°10.035 9.1 246 15.6 101860 74
2007-07-30 08:14:54 51°22.087 3°10.054 9.4 25 15.5 101870 74
2007-07-30 08:15:00 51°22.095 3°10.083 8.6 246 15.5 101870 74
2007-07-30 08:15:05 51°22.102 3°10.106 6.5 20 15.5 101860 75
2007-07-30 08:15:10 51°22.108 3°10.131 7 249 15.5 101860 75
2007-07-30 08:15:14 51°22.114 3°10.149 6.6 247 15.6 101850 75
2007-07-30 08:15:20 51°22.122 3°10.178 6.4 246 15.6 101850 75
2007-07-30 08:15:25 51°22.129 3°10.201 5.6 286 15.6 101860 75
2007-07-30 08:15:30 51°22.136 3°10.225 6.8 245 15.6 101860 75
2007-07-30 08:15:35 51°22.143 3°10.249 5.5 245 15.6 101860 75
2007-07-30 08:15:40 51°22.15 3°10.274 6.4 246 15.6 101860 75
2007-07-30 08:15:45 51°22.157 3°10.297 6.1 20 15.6 101880 74
2007-07-30 08:15:50 51°22.165 3°10.321 5.5 246 15.6 101880 74
2007-07-30 08:15:54 51°22.17 3°10.34 5.8 247 15.6 101870 74
2007-07-30 08:16:00 51°22.179 3°10.369 5.7 248 15.6 101870 74
2007-07-30 08:16:05 51°22.186 3°10.393 5.3 25 15.6 101870 74
2007-07-30 08:16:10 51°22.193 3°10.417 8.1 248 15.6 101870 74
2007-07-30 08:16:15 51°22.2 3°10.44 7 246 15.6 101870 74
2007-07-30 08:16:20 51°22.207 3°10.464 7.8 249 15.6 101870 74
2007-07-30 08:16:25 51°22.214 3°10.488 8.5 247 15.6 101870 74
2007-07-30 08:16:30 51°22.221 3°10.512 7.4 250 15.6 101870 74
2007-07-30 08:16:35 51°22.228 3°10.536 7.1 250 15.6 101870 75
2007-07-30 08:16:40 51°22.235 3°10.56 7 248 15.6 101870 75
2007-07-30 08:16:45 51°22.242 3°10.584 6.5 251 15.7 101860 75
2007-07-30 08:16:50 51°22.249 3°10.609 6.6 249 15.7 101860 75
2007-07-30 08:16:55 51°22.256 3°10.633 6.5 244 15.7 101850 75
2007-07-30 08:17:00 51°22.264 3°10.657 7.7 249 15.7 101850 75
2007-07-30 08:17:05 51°22.271 3°10.682 7 249 15.7 101870 75
2007-07-30 08:17:10 51°22.279 3°10.705 6.7 243 15.7 101870 75
2007-07-30 08:17:15 51°22.286 3°10.73 8.2 242 15.7 101860 74
2007-07-30 08:17:20 51°22.294 3°10.754 6.6 246 15.7 101860 74
2007-07-30 08:17:25 51°22.302 3°10.779 7.7 277 15.7 101870 75
2007-07-30 08:17:30 51°22.31 3°10.803 8.5 242 15.7 101870 75
2007-07-30 08:17:35 51°22.317 3°10.829 6.5 245 15.7 101860 75
2007-07-30 08:17:40 51°22.325 3°10.853 7.5 246 15.7 101860 75
2007-07-30 08:17:45 51°22.331 3°10.878 8 20 15.7 101860 75
2007-07-30 08:17:50 51°22.339 3°10.902 8.9 245 15.7 101860 75
2007-07-30 08:17:55 51°22.346 3°10.927 8.4 21 15.7 101860 75
2007-07-30 08:18:00 51°22.353 3°10.952 8.6 247 15.7 101860 75
2007-07-30 08:18:05 51°22.361 3°10.976 6 20 15.7 101860 75
2007-07-30 08:18:10 51°22.368 3°11 8.3 247 15.7 101860 75
2007-07-30 08:18:14 51°22.374 3°11.019 7.4 19 15.7 101860 75
2007-07-30 08:18:20 51°22.382 3°11.049 8.5 243 15.7 101860 75
2007-07-30 08:18:25 51°22.389 3°11.074 8.1 22 15.7 101860 75
2007-07-30 08:18:30 51°22.397 3°11.097 9.3 250 15.7 101860 75
2007-07-30 08:18:35 51°22.403 3°11.122 9.3 253 15.6 101870 75
2007-07-30 08:18:40 51°22.411 3°11.146 9 247 15.6 101870 75
2007-07-30 08:18:45 51°22.418 3°11.17 8.3 251 15.7 101860 75
2007-07-30 08:18:49 51°22.424 3°11.19 9.5 249 15.7 101860 75
2007-07-30 08:18:54 51°22.432 3°11.214 9.3 250 15.6 101860 75
2007-07-30 08:19:00 51°22.44 3°11.243 8.3 250 15.6 101860 75
2007-07-30 08:19:05 51°22.447 3°11.268 7.1 280 15.6 101860 74
2007-07-30 08:19:10 51°22.455 3°11.293 8.2 246 15.6 101860 74
2007-07-30 08:19:14 51°22.462 3°11.312 7.5 249 15.7 101860 74
2007-07-30 08:19:20 51°22.47 3°11.341 8.9 245 15.7 101860 74
2007-07-30 08:19:25 51°22.478 3°11.365 7.6 250 15.7 101860 74
2007-07-30 08:19:29 51°22.485 3°11.385 7.3 252 15.7 101860 74
2007-07-30 08:19:34 51°22.492 3°11.409 9 252 15.7 101860 75
2007-07-30 08:19:40 51°22.501 3°11.438 9.1 250 15.7 101860 75
2007-07-30 08:19:45 51°22.509 3°11.461 9.6 250 15.7 101870 75
2007-07-30 08:19:50 51°22.515 3°11.486 9.1 246 15.7 101870 75
2007-07-30 08:19:55 51°22.524 3°11.51 8.2 244 15.7 101870 74
2007-07-30 08:20:00 51°22.531 3°11.533 7.5 245 15.7 101870 74
2007-07-30 08:20:05 51°22.538 3°11.557 6.7 245 15.6 101870 74
2007-07-30 08:20:10 51°22.545 3°11.582 10.1 246 15.6 101870 74
2007-07-30 08:20:15 51°22.553 3°11.605 10 248 15.7 101870 74
2007-07-30 08:20:20 51°22.56 3°11.629 7.8 242 15.7 101870 74
2007-07-30 08:20:25 51°22.567 3°11.653 9.9 287 15.7 101860 74
2007-07-30 08:20:30 51°22.576 3°11.675 8.5 243 15.7 101860 74
2007-07-30 08:20:34 51°22.581 3°11.695 10 25 15.7 101870 75
2007-07-30 08:20:40 51°22.591 3°11.722 7.8 246 15.7 101870 75
2007-07-30 08:20:45 51°22.597 3°11.746 6.8 24 15.7 101860 75
2007-07-30 08:20:50 51°22.605 3°11.769 7 247 15.7 101860 75
2007-07-30 08:20:55 51°22.611 3°11.793 8.1 248 15.6 101860 75
2007-07-30 08:21:00 51°22.619 3°11.816 7.9 246 15.6 101860 75
2007-07-30 08:21:05 51°22.626 3°11.839 9.7 250 15.7 101860 74
2007-07-30 08:21:09 51°22.631 3°11.858 7 247 15.7 101860 74
2007-07-30 08:21:15 51°22.64 3°11.886 7.5 247 15.6 101860 74
2007-07-30 08:21:20 51°22.647 3°11.909 8.1 243 15.6 101860 74
2007-07-30 08:21:25 51°22.653 3°11.932 8.3 282 15.6 101870 74
2007-07-30 08:21:30 51°22.66 3°11.956 8.7 248 15.6 101870 74
2007-07-30 08:21:34 51°22.665 3°11.975 9.8 20 15.6 101870 74
2007-07-30 08:21:40 51°22.674 3°12.003 8.6 248 15.6 101870 74
2007-07-30 08:21:45 51°22.68 3°12.026 8.3 248 15.6 101860 74
2007-07-30 08:21:50 51°22.688 3°12.05 6.8 245 15.6 101860 74
2007-07-30 08:21:54 51°22.693 3°12.068 9.7 248 15.5 101860 74
2007-07-30 08:22:00 51°22.7 3°12.096 9 243 15.5 101860 74
2007-07-30 08:22:05 51°22.707 3°12.12 9.1 279 15.5 101860 74
2007-07-30 08:22:10 51°22.714 3°12.143 8.5 246 15.5 101860 74
2007-07-30 08:22:15 51°22.719 3°12.167 7.5 24 15.5 101870 74
2007-07-30 08:22:20 51°22.727 3°12.189 8.9 248 15.5 101870 74
2007-07-30 08:22:25 51°22.733 3°12.213 10.1 285 15.5 101870 74
2007-07-30 08:22:30 51°22.74 3°12.236 8.3 247 15.5 101870 74
2007-07-30 08:22:35 51°22.746 3°12.26 10 23 15.5 101870 74
2007-07-30 08:22:40 51°22.754 3°12.282 7.9 246 15.5 101870 74
2007-07-30 08:22:45 51°22.76 3°12.306 7.5 246 15.5 101870 74
2007-07-30 08:22:50 51°22.767 3°12.33 7.9 247 15.5 101870 74